Temp
75 70 64 71 72 74 70 66 63 63 68 62 59 58 61 64 64 64 66 64 65 67 69 70 69 68 66 64 62 60 60 58 58 56 55 57 55 56 61 62 61 61 62 60
71 65 77 79 77 75 70 61 57 64 68 63 60 56 60 60 61 63 64 66 67 67 67 68 66 65 64 62 61 60 59 58 57 56 55 54 54 55 55 58 59 62 60 59
66 76 85 83 75 72 66 63 60 60 64 62 60 55 55 61 63 63 64 65 67 67 65 65 65 63 62 61 61 60 58 58 56 56 55 56 56 55 55 54 56 56 59 60
72 82 81 74 74 73 62 71 69 64 59 51 61 49 52 55 59 61 62 62 64 66 66 65 64 61 61 61 62 60 58 57 57 55 52 52 51 49 50 51 52 54 57 58
74 79 75 73 75 75 69 72 68 64 55 52 55 51 50 56 56 60 63 64 65 66 65 64 64 63 64 62 60 59 58 56 55 54 52 51 51 51 51 52 53 53 54 56
75 82 79 78 82 79 76 69 63 57 51 45 51 52 51 53 57 61 65 67 68 65 65 64 64 64 62 62 60 59 56 54 55 54 53 52 52 51 51 51 51 51 52 53
72 74 80 84 74 74 69 57 47 47 44 43 53 51 51 59 62 64 65 68 67 67 63 63 62 61 60 59 60 59 56 54 54 54 54 53 52 52 51 51 51 51 51 51
61 61 75 82 75 67 65 61 50 44 42 44 54 47 53 65 67 67 69 69 66 63 61 63 62 61 59 60 59 58 55 54 54 54 53 53 53 52 52 52 52 51 51 52
61 64 79 81 80 76 66 60 64 54 50 45 48 55 64 66 65 66 68 69 64 62 62 62 61 61 60 59 58 57 55 54 54 54 54 53 53 53 53 53 52 52 52 55
68 62 76 79 80 77 67 70 57 52 44 39 47 50 49 57 60 65 68 64 62 62 62 61 61 60 59 58 57 56 55 55 54 54 54 54 53 54 54 53 53 52 52 52
69 64 67 73 66 64 65 61 59 55 52 44 41 46 56 58 60 62 65 67 64 63 61 61 60 60 59 58 58 56 55 55 55 55 54 53 53 54 54 53 53 52 52 52
72 62 60 65 72 75 69 64 58 49 51 50 47 48 61 60 61 64 63 65 64 64 62 61 61 60 58 57 57 57 55 55 55 55 54 53 54 53 53 53 53 53 52 52
71 59 53 58 63 69 66 68 65 56 52 51 46 48 63 64 62 65 64 66 66 64 61 59 59 59 58 57 58 58 58 56 56 56 54 53 53 52 53 53 53 53 53 52
68 60 59 54 60 64 62 67 67 59 49 50 51 52 57 61 61 62 63 66 65 63 62 59 58 58 58 58 58 59 58 59 57 57 54 53 53 52 53 54 53 53 53 52
67 60 63 66 71 71 69 68 68 62 60 53 57 58 60 60 60 64 64 66 64 62 61 60 57 56 56 56 58 59 59 60 57 57 55 54 54 53 54 54 54 54 53 53
66 61 62 63 71 71 68 71 68 67 65 62 61 58 64 64 61 64 66 67 65 64 64 62 60 59 58 58 58 60 59 59 58 57 56 56 56 55 54 54 54 53 53 52
65 61 58 55 66 66 59 66 68 66 67 63 56 61 63 61 64 63 65 67 66 65 64 62 61 59 58 58 60 58 59 58 58 57 58 58 57 56 55 55 54 53 52 51
63 59 56 52 58 50 65 72 72 67 67 67 66 65 66 67 64 65 68 67 66 65 64 62 60 58 58 57 58 58 59 58 58 56 58 58 58 57 56 54 53 52 52 52
67 60 55 52 51 61 66 70 67 63 60 66 66 66 65 65 65 62 65 65 63 64 63 61 59 58 57 58 59 58 57 57 58 58 57 58 59 57 59 57 52 52 51 51
66 61 58 54 52 50 61 70 73 69 53 67 67 65 64 63 53 55 63 65 63 63 63 60 60 59 59 58 58 57 56 56 57 59 59 58 58 57 56 56 52 52 52 54
52 52 51 50 51 59 68 73 74 55 55 66 67 65 64 60 58 62 63 63 63 63 62 62 60 59 60 59 57 55 55 55 58 60 59 58 58 56 56 55 58 58 56 54
51 50 50 51 49 48 71 72 64 61 60 66 65 64 63 62 63 64 64 63 63 63 63 62 59 59 60 60 58 56 55 58 59 59 59 58 57 57 58 53 53 58 56 53
51 55 51 55 55 63 67 69 68 66 66 65 65 65 67 65 64 65 63 62 63 64 63 62 60 59 59 60 59 56 57 58 59 57 57 57 57 57 56 54 53 56 55 55
60 62 57 60 66 66 69 71 68 69 68 69 69 67 67 66 66 65 63 62 62 63 63 61 60 59 59 59 61 60 60 60 59 56 55 55 54 55 54 54 53 53 56 55
62 61 59 60 65 69 71 69 69 71 71 72 71 70 69 67 65 66 63 63 63 63 62 61 62 59 60 60 60 61 61 60 57 57 56 55 54 53 53 53 53 54 56 55
64 61 58 56 66 63 65 68 70 72 71 73 72 71 70 70 67 66 66 64 63 63 62 61 60 60 61 61 61 62 61 60 57 55 56 54 53 53 53 52 53 51 50 50
MSLP
1009.06 1009.82 1010.32 1010.13 1010.84 1011.03 1012.02 1013.67 1015.37 1017.23 1017.83 1018.26 1020.02 1020.89 1021.67 1021.34 1020.47 1020.18 1019.78 1020.26 1021.31 1021.64 1021.73 1022.06 1022.44 1022.59 1023.02 1023.36 1023.73 1023.55 1023.30 1022.98 1022.65 1022.51 1022.27 1021.90 1021.98 1021.67 1021.19 1020.65 1020.43 1020.29 1020.11 1019.83
1009.72 1009.79 1009.05 1009.24 1009.60 1010.80 1012.59 1014.04 1016.41 1017.68 1018.09 1018.69 1020.42 1020.98 1021.42 1021.59 1021.79 1021.07 1020.67 1020.78 1021.23 1021.47 1021.99 1022.38 1022.46 1022.99 1023.51 1023.86 1023.95 1023.63 1023.63 1023.16 1022.98 1022.74 1022.49 1022.22 1022.14 1022.05 1021.63 1021.19 1020.92 1020.56 1020.33 1020.04
1010.31 1009.30 1008.34 1009.48 1009.61 1010.77 1012.51 1013.68 1015.37 1016.67 1017.77 1018.51 1019.92 1021.48 1021.45 1021.59 1021.41 1021.64 1021.19 1021.02 1021.14 1021.43 1022.07 1022.47 1022.87 1023.42 1023.92 1024.06 1023.76 1023.75 1023.67 1023.38 1023.12 1022.87 1022.56 1022.31 1022.15 1022.12 1022.01 1021.73 1021.36 1020.98 1020.51 1020.17
1009.68 1008.54 1008.16 1008.94 1009.60 1010.14 1011.95 1012.62 1014.37 1016.04 1017.49 1018.48 1019.18 1021.30 1021.88 1021.37 1021.25 1021.53 1021.14 1020.84 1021.21 1021.58 1022.28 1022.56 1023.08 1023.77 1023.95 1023.85 1023.81 1023.70 1023.70 1023.58 1023.33 1022.98 1022.95 1022.91 1022.91 1022.76 1022.56 1022.12 1021.71 1021.18 1020.68 1020.36
1008.97 1009.15 1008.24 1008.44 1009.03 1009.74 1011.61 1013.44 1014.39 1016.00 1017.50 1018.82 1019.49 1020.33 1021.44 1020.98 1020.92 1021.01 1020.65 1020.57 1021.02 1021.75 1022.22 1022.71 1023.06 1023.35 1023.57 1023.76 1023.75 1023.85 1023.87 1023.73 1023.56 1023.30 1023.20 1023.23 1023.17 1022.88 1022.48 1022.09 1021.76 1021.48 1020.96 1020.69
1009.33 1008.01 1007.86 1007.92 1008.53 1009.47 1011.44 1013.73 1015.55 1017.06 1018.59 1019.83 1020.15 1020.19 1020.12 1020.17 1019.85 1019.93 1019.98 1020.19 1021.00 1021.76 1022.33 1022.66 1022.74 1023.00 1023.49 1023.67 1023.75 1023.93 1023.92 1023.91 1023.72 1023.43 1023.35 1023.26 1023.16 1022.89 1022.59 1022.27 1022.03 1021.70 1021.31 1020.87
1009.53 1008.73 1007.93 1007.96 1008.87 1010.07 1011.38 1013.57 1016.23 1017.89 1019.19 1020.54 1020.36 1020.27 1019.39 1019.27 1019.09 1019.20 1019.44 1020.22 1021.23 1021.71 1022.30 1022.71 1022.85 1023.24 1023.60 1023.70 1023.78 1023.90 1023.98 1024.09 1023.93 1023.71 1023.56 1023.38 1023.13 1022.83 1022.71 1022.50 1022.26 1021.95 1021.48 1021.00
1010.45 1009.75 1008.87 1008.59 1008.98 1010.02 1011.35 1013.08 1015.38 1017.45 1019.64 1020.73 1020.79 1020.11 1018.62 1018.11 1018.17 1018.86 1019.36 1020.13 1021.06 1021.83 1022.32 1022.55 1022.74 1023.19 1023.48 1023.68 1023.81 1023.90 1024.08 1024.14 1023.99 1023.74 1023.58 1023.37 1023.11 1022.84 1022.77 1022.59 1022.45 1022.16 1021.86 1021.56
1010.53 1010.06 1009.09 1008.85 1008.77 1009.78 1011.24 1012.71 1013.83 1016.13 1018.90 1020.38 1020.68 1019.58 1018.36 1018.14 1018.70 1019.26 1019.88 1020.59 1021.25 1021.84 1022.00 1022.35 1022.78 1023.08 1023.29 1023.57 1023.78 1023.85 1024.04 1024.12 1023.92 1023.77 1023.60 1023.44 1023.21 1022.90 1022.85 1022.68 1022.54 1022.39 1022.13 1021.63
1010.23 1010.31 1010.05 1009.48 1009.36 1010.19 1010.98 1012.30 1013.90 1015.90 1018.50 1020.22 1020.29 1020.09 1019.55 1019.12 1019.27 1019.58 1019.77 1020.35 1021.16 1021.53 1022.13 1022.59 1022.91 1023.16 1023.37 1023.53 1023.73 1023.75 1023.83 1023.90 1023.77 1023.66 1023.68 1023.59 1023.34 1023.01 1022.84 1022.76 1022.66 1022.53 1022.21 1021.83
1010.04 1010.56 1011.10 1010.50 1010.96 1011.17 1011.72 1012.83 1014.38 1016.09 1017.80 1019.28 1020.40 1019.95 1019.01 1019.16 1019.13 1019.65 1019.95 1020.17 1020.73 1021.59 1022.18 1022.62 1022.94 1023.23 1023.44 1023.56 1023.59 1023.80 1023.88 1023.82 1023.75 1023.68 1023.67 1023.52 1023.30 1023.08 1022.91 1022.82 1022.71 1022.54 1022.17 1021.96
1010.09 1011.12 1011.87 1011.74 1010.99 1010.96 1011.42 1012.76 1014.06 1016.39 1017.74 1018.80 1019.57 1019.48 1018.73 1018.70 1018.94 1019.08 1019.58 1020.34 1020.91 1021.59 1022.08 1022.34 1022.75 1023.23 1023.54 1023.62 1023.79 1023.85 1023.90 1023.87 1023.76 1023.64 1023.62 1023.53 1023.38 1023.25 1023.08 1022.92 1022.76 1022.43 1022.33 1022.09
1009.90 1011.65 1012.40 1012.13 1011.76 1011.11 1011.34 1012.04 1013.18 1015.08 1016.63 1018.19 1019.18 1019.81 1019.11 1018.69 1019.02 1019.18 1019.75 1020.28 1020.71 1021.57 1021.99 1022.57 1022.91 1023.13 1023.44 1023.63 1023.73 1023.66 1023.52 1023.57 1023.55 1023.60 1023.68 1023.53 1023.50 1023.42 1023.21 1023.02 1022.84 1022.55 1022.48 1022.34
1009.77 1011.53 1011.93 1012.38 1012.01 1011.47 1011.47 1011.76 1012.80 1014.14 1016.46 1017.55 1018.08 1018.96 1019.41 1019.35 1019.40 1019.39 1019.78 1020.20 1020.79 1021.39 1021.80 1022.47 1022.93 1023.10 1023.35 1023.42 1023.59 1023.53 1023.25 1022.90 1023.20 1023.42 1023.65 1023.54 1023.40 1023.37 1023.11 1023.00 1022.90 1022.69 1022.51 1022.39
1010.52 1011.92 1012.04 1011.98 1011.37 1010.93 1011.08 1011.37 1012.26 1013.49 1014.90 1016.13 1017.26 1017.55 1018.01 1018.29 1018.62 1018.64 1019.18 1020.05 1020.72 1021.27 1021.94 1022.35 1022.86 1023.02 1023.33 1023.61 1023.55 1023.38 1023.05 1022.87 1022.95 1023.10 1023.52 1023.42 1023.34 1023.39 1023.14 1022.97 1022.90 1022.72 1022.58 1022.47
1011.24 1012.09 1012.10 1012.32 1011.59 1011.04 1011.09 1011.22 1012.04 1013.01 1014.20 1015.18 1016.27 1016.74 1016.70 1017.62 1018.23 1018.38 1018.85 1019.59 1020.07 1020.67 1021.19 1021.94 1022.43 1022.87 1023.18 1023.33 1023.24 1023.06 1022.96 1022.88 1022.93 1023.03 1023.29 1023.20 1023.26 1023.16 1023.11 1022.97 1022.83 1022.67 1022.56 1022.51
1011.86 1012.73 1013.17 1013.30 1012.35 1011.51 1011.68 1011.33 1011.89 1012.73 1013.64 1014.56 1016.01 1016.10 1016.63 1017.63 1017.83 1018.00 1018.53 1018.96 1019.44 1020.14 1020.94 1021.58 1022.12 1022.56 1022.83 1022.85 1022.77 1022.78 1022.76 1022.82 1022.94 1023.11 1023.16 1023.10 1023.09 1023.05 1023.00 1022.88 1022.73 1022.63 1022.53 1022.49
1012.21 1013.09 1013.68 1014.20 1013.41 1012.89 1011.91 1011.37 1011.65 1012.87 1013.90 1014.28 1015.00 1015.82 1016.31 1016.61 1017.12 1017.42 1017.82 1018.26 1019.21 1020.02 1020.84 1021.46 1021.95 1022.37 1022.49 1022.54 1022.59 1022.62 1022.64 1022.87 1022.99 1023.07 1023.08 1022.93 1022.83 1022.83 1022.80 1022.74 1022.66 1022.53 1022.43 1022.34
1012.17 1013.39 1014.54 1014.73 1014.46 1013.39 1012.23 1011.80 1012.35 1013.13 1014.76 1014.72 1015.13 1015.84 1016.35 1016.78 1017.13 1018.09 1018.20 1018.74 1019.32 1020.00 1020.74 1021.33 1021.76 1022.07 1022.21 1022.30 1022.37 1022.58 1022.78 1022.80 1022.83 1022.88 1022.90 1022.76 1022.62 1022.56 1022.41 1022.41 1022.56 1022.30 1022.20 1022.08
1013.53 1013.98 1014.81 1015.49 1014.97 1013.94 1012.53 1011.93 1012.05 1012.93 1014.96 1014.95 1015.06 1016.05 1016.75 1017.17 1018.45 1019.01 1018.69 1018.98 1019.81 1020.39 1020.83 1021.34 1021.69 1021.92 1022.07 1022.21 1022.29 1022.52 1022.75 1022.75 1022.68 1022.57 1022.54 1022.46 1022.35 1022.33 1022.31 1022.13 1022.19 1021.91 1021.73 1021.63
1015.69 1016.10 1016.66 1016.42 1015.69 1014.11 1012.88 1012.49 1012.32 1013.83 1015.00 1014.97 1015.18 1015.80 1016.70 1017.46 1017.68 1018.28 1018.85 1019.25 1019.52 1020.14 1020.75 1021.11 1021.43 1021.71 1021.80 1021.95 1022.33 1022.59 1022.68 1022.63 1022.37 1022.14 1022.15 1022.21 1022.13 1022.14 1022.01 1021.79 1021.57 1021.44 1021.26 1021.22
1017.73 1017.34 1017.24 1017.29 1016.30 1014.76 1013.00 1012.79 1013.12 1014.21 1014.47 1014.71 1015.06 1015.71 1016.40 1017.15 1017.76 1018.40 1018.85 1019.05 1019.32 1019.86 1020.55 1020.84 1021.26 1021.51 1021.51 1021.56 1021.90 1022.30 1022.49 1022.09 1021.98 1021.96 1021.97 1021.95 1021.90 1021.90 1021.74 1021.88 1021.59 1021.17 1020.97 1020.94
1017.66 1017.24 1016.85 1016.81 1015.41 1014.24 1013.40 1013.21 1012.67 1013.13 1013.93 1014.81 1014.99 1015.67 1015.87 1016.95 1017.60 1018.06 1018.56 1018.96 1019.07 1019.41 1019.94 1020.37 1020.76 1021.15 1021.30 1021.41 1021.48 1021.86 1021.55 1021.63 1021.73 1021.86 1021.90 1021.81 1021.75 1021.66 1021.47 1021.60 1021.45 1021.31 1020.97 1020.89
1016.20 1016.33 1016.46 1016.22 1014.64 1013.94 1013.53 1013.08 1012.90 1013.05 1013.70 1014.02 1014.30 1015.12 1015.84 1016.68 1017.19 1017.75 1018.21 1018.67 1018.91 1019.17 1019.50 1019.88 1020.61 1021.06 1021.26 1021.08 1021.09 1020.94 1020.96 1021.10 1021.34 1021.61 1021.72 1021.67 1021.75 1021.53 1021.21 1021.11 1020.98 1020.97 1020.58 1020.51
1015.37 1015.63 1015.62 1015.62 1014.45 1013.76 1012.92 1013.06 1013.03 1013.14 1013.42 1013.63 1014.06 1014.56 1015.12 1016.01 1016.73 1017.13 1017.89 1018.32 1018.42 1018.73 1019.05 1019.33 1019.80 1020.31 1020.39 1020.49 1020.59 1020.40 1020.41 1020.65 1021.14 1021.26 1021.34 1021.42 1021.35 1021.29 1021.12 1020.81 1020.64 1020.44 1019.90 1019.96
1014.51 1014.52 1014.92 1014.66 1014.32 1014.39 1013.68 1013.14 1013.12 1013.28 1013.59 1013.44 1013.77 1014.41 1014.79 1015.01 1015.81 1016.53 1017.10 1017.44 1017.84 1018.31 1018.69 1019.26 1019.54 1019.75 1019.78 1019.82 1019.88 1019.87 1019.90 1020.14 1020.67 1020.99 1021.01 1021.02 1021.00 1020.90 1020.74 1020.54 1020.02 1019.30 1019.15 1019.17
Wind_Speed
4 6 6 13 8 9 3 7 10 9 9 11 9 11 10 9 2 4 4 4 1 7 5 8 10 9 7 6 5 4 5 5 4 3 4 4 3 3 6 7 7 6 4 5
7 6 15 9 6 8 12 9 6 6 3 10 8 11 7 3 2 5 4 4 9 6 6 7 8 6 4 5 5 5 5 5 4 2 2 2 2 2 1 3 6 6 5 6
4 13 17 5 11 13 6 10 6 10 6 2 11 5 5 2 1 2 3 2 3 5 8 8 7 6 5 5 5 6 4 4 4 5 4 4 3 3 4 4 4 4 5 7
7 15 11 3 6 10 4 6 20 17 4 2 4 2 1 2 3 5 7 6 6 3 6 7 7 6 7 6 5 7 5 4 5 6 5 5 3 3 3 2 2 5 5 6
14 6 8 8 5 5 6 4 8 5 8 5 8 4 3 3 1 5 7 6 4 8 10 8 8 8 7 6 6 6 5 5 6 6 6 4 4 2 2 3 6 6 6 6
9 5 3 7 4 8 10 10 10 5 4 5 4 2 5 6 6 3 4 6 11 10 8 7 6 7 7 5 5 5 6 5 6 5 6 7 6 5 5 5 5 4 3 3
6 6 6 6 6 6 5 7 4 4 6 3 2 3 9 4 6 6 5 15 13 11 9 7 7 7 7 6 5 5 6 5 3 5 5 5 5 6 6 5 4 6 4 4
1 7 4 6 6 4 3 7 6 4 4 2 5 3 7 3 8 5 6 13 10 8 7 7 8 8 7 6 5 6 6 4 2 5 5 5 5 4 3 4 4 4 4 4
3 4 4 3 2 7 3 3 4 8 4 5 3 6 5 6 6 6 6 12 11 9 8 9 8 7 7 7 5 7 7 3 2 3 4 5 5 5 4 5 4 3 4 4
6 3 3 4 10 6 3 3 6 5 3 1 3 4 5 2 5 7 9 12 9 7 8 7 7 7 6 6 5 6 6 6 3 3 3 3 4 5 5 4 5 6 5 6
5 3 4 4 2 4 5 4 6 5 5 6 3 7 6 8 8 9 3 11 13 11 8 7 7 6 7 6 6 7 6 5 4 2 1 2 4 6 5 4 5 5 5 6
4 5 3 5 4 4 5 6 6 7 4 3 5 6 4 9 8 9 7 10 10 12 9 8 8 8 7 7 5 6 5 5 4 3 1 2 4 5 5 4 5 5 5 5
6 2 3 8 8 5 2 4 5 5 4 0 6 5 7 8 8 8 10 12 12 12 9 7 6 7 7 7 5 4 4 5 5 3 1 2 3 3 3 3 4 5 5 5
8 3 8 7 7 4 3 3 4 7 5 2 2 7 5 7 10 7 6 12 12 12 12 7 6 6 7 7 6 4 2 3 4 5 3 2 2 0 1 1 3 3 4 5
6 4 4 5 3 0 4 3 8 5 8 7 10 13 16 14 12 12 9 10 12 11 10 8 7 6 6 7 5 4 3 0 2 4 4 5 1 2 3 3 3 4 4 4
3 2 1 5 4 6 3 5 8 6 7 7 8 4 9 9 5 5 8 14 13 13 12 9 8 7 7 8 7 5 2 2 3 5 4 1 2 2 2 2 3 3 3 4
3 4 3 1 4 6 5 4 6 4 4 11 8 8 6 4 10 9 12 15 15 14 12 10 9 8 7 7 7 5 4 3 4 5 3 4 3 1 1 1 3 3 3 2
6 5 3 2 4 2 6 4 9 12 4 7 8 7 12 12 3 6 10 14 11 12 11 9 7 6 6 5 4 4 5 4 3 4 4 3 3 1 2 2 2 3 2 2
2 6 3 5 3 4 1 4 5 8 3 2 8 7 8 8 6 7 4 4 6 9 9 8 7 6 6 7 5 7 5 5 4 2 4 4 3 3 4 2 4 4 2 3
6 8 5 2 2 4 6 1 10 6 2 3 6 8 11 4 4 4 5 7 8 8 9 9 8 6 6 5 6 7 5 4 3 3 3 5 4 3 4 4 5 4 4 4
5 5 4 3 2 3 3 1 3 7 9 5 6 6 7 5 6 7 7 6 9 10 10 7 8 8 8 6 7 6 5 5 6 4 3 5 4 3 4 5 3 4 5 5
2 3 4 1 3 1 1 3 5 8 1 6 5 5 7 8 9 10 8 10 10 11 8 8 8 7 7 6 7 7 6 6 6 4 4 4 4 4 4 4 5 6 5 4
2 6 7 8 7 6 5 6 3 8 8 5 8 6 13 12 9 12 9 9 10 10 8 8 9 8 7 7 7 8 7 7 6 5 5 5 5 6 6 4 7 4 4 4
2 2 2 3 6 7 11 4 5 5 7 8 7 8 9 11 9 9 8 8 7 7 7 7 8 7 8 7 7 8 7 7 7 6 6 5 4 7 6 4 4 4 5 4
4 8 5 2 9 8 5 3 2 3 4 7 8 10 13 10 11 10 8 8 8 8 6 8 11 8 9 8 8 7 8 7 6 6 5 5 4 5 5 5 5 5 6 6
5 7 5 6 5 5 1 4 4 3 8 8 9 7 8 11 12 9 10 9 8 8 6 7 7 7 8 8 8 8 7 8 7 6 5 5 4 5 4 4 6 8 13 9
Wind_Direction
336 34 274 267 160 211 119 97 106 112 121 70 96 121 147 160 138 247 128 86 194 182 162 125 119 107 99 92 111 83 57 25 17 345 2 13 22 352 40 34 53 56 31 20
3 274 259 259 191 197 87 106 100 65 359 104 158 150 158 168 209 260 143 162 172 169 146 134 112 115 127 140 127 97 66 49 28 22 343 22 356 352 340 18 19 16 32 19
159 261 291 295 96 101 136 149 172 146 148 108 159 132 155 84 124 314 311 290 266 180 143 132 133 157 156 157 115 104 100 74 50 43 20 14 7 16 13 359 6 351 16 13
249 295 251 216 98 114 111 166 142 157 157 154 79 120 161 192 238 235 234 219 249 132 135 133 158 180 170 145 130 96 102 97 59 42 52 51 59 29 316 315 313 340 4 2
274 283 109 84 140 118 187 104 115 112 81 75 342 80 203 306 127 197 218 233 227 146 146 157 186 178 155 143 119 105 112 89 60 57 60 61 47 13 308 349 8 358 5 6
246 222 146 154 103 95 109 84 63 65 100 51 269 97 296 167 178 170 189 117 131 143 150 166 166 121 133 136 115 106 109 86 65 63 54 57 47 15 18 360 14 354 342 1
338 332 345 91 76 53 94 81 18 351 23 223 351 26 240 186 189 183 135 133 154 150 145 152 142 125 143 142 131 116 116 86 79 73 55 43 39 37 25 7 10 3 345 354
189 344 48 305 117 165 86 136 153 233 171 223 2 265 268 254 173 124 108 142 141 133 147 133 121 126 139 145 131 114 123 109 78 60 39 21 23 43 26 30 12 6 349 346
162 257 315 356 66 103 324 346 193 110 64 87 240 282 350 65 86 120 145 145 148 160 135 119 123 128 119 136 138 131 138 116 76 57 40 15 11 36 29 28 23 343 354 350
212 57 342 304 48 22 84 228 30 9 99 62 290 291 238 174 174 166 181 138 148 129 127 124 137 132 118 120 127 126 145 143 143 82 36 13 0 20 26 33 20 13 359 1
127 118 322 34 62 204 10 18 55 104 128 150 164 265 204 190 163 174 155 146 152 149 155 147 139 134 138 129 111 126 155 157 145 110 45 23 15 20 30 34 18 15 16 8
181 123 124 232 249 228 163 168 126 114 275 98 129 272 344 174 176 166 158 160 154 158 162 150 147 139 141 127 121 114 149 167 187 166 88 52 40 26 39 29 23 16 18 7
181 80 74 348 355 360 139 172 141 106 82 297 121 258 11 131 136 160 155 153 156 158 147 141 139 147 148 142 142 125 117 161 195 191 162 72 58 32 29 14 22 15 6 3
79 113 148 170 208 177 310 223 101 119 97 204 198 145 243 166 165 184 157 155 151 158 152 151 145 147 152 150 150 155 114 83 141 199 193 199 123 47 25 342 10 2 3 11
96 133 152 219 285 13 225 109 160 125 168 133 185 164 193 190 193 199 157 158 151 143 149 160 157 151 143 148 161 178 180 119 85 135 186 227 242 49 41 15 353 349 4 8
28 240 101 39 11 46 23 357 118 122 126 92 134 186 182 196 213 173 159 165 158 163 163 157 153 154 146 164 174 192 164 144 72 96 149 161 201 97 63 20 2 7 357 9
103 110 69 117 347 53 358 307 166 133 126 133 151 213 137 162 196 197 173 172 170 172 157 155 155 159 155 159 173 189 157 140 96 116 122 124 123 132 59 351 15 348 316 343
137 107 102 156 25 44 254 346 119 98 89 123 98 150 176 187 180 157 175 161 163 151 152 155 156 149 157 160 157 126 127 142 122 114 152 156 118 137 278 296 314 309 297 292
59 121 100 127 163 258 23 161 141 120 11 334 120 117 112 104 77 19 82 102 134 150 156 159 157 158 154 150 150 125 125 131 135 140 181 209 189 217 257 295 297 266 257 266
62 70 107 95 156 206 245 84 132 114 28 257 120 143 149 107 100 240 155 129 124 142 154 155 161 152 145 171 146 134 157 151 165 221 201 212 230 259 244 276 274 248 235 244
355 16 79 19 336 308 323 290 132 85 234 186 143 142 151 157 194 165 147 133 152 158 164 161 157 162 182 169 145 149 169 188 212 206 168 218 240 229 229 249 273 275 270 258
240 143 99 62 28 252 15 338 133 204 172 166 125 136 114 123 129 148 162 157 153 161 160 167 160 183 198 168 151 169 197 215 202 198 198 231 254 255 255 262 285 287 292 274
280 183 184 171 207 235 280 246 183 154 146 194 141 166 144 148 169 171 175 168 172 173 168 174 173 184 204 188 168 181 220 196 197 197 225 243 267 263 268 255 276 303 306 291
201 204 171 119 257 259 251 314 134 171 173 169 159 159 157 172 175 180 170 177 178 182 177 170 171 188 209 210 203 204 200 197 188 205 233 253 256 273 281 276 246 253 252 260
198 142 154 276 303 310 40 348 255 228 181 148 160 172 180 166 182 176 175 180 182 180 180 170 179 189 212 205 219 217 205 184 202 214 229 254 262 265 278 268 257 257 255 204
187 169 152 209 240 161 254 317 114 145 209 200 168 187 198 169 176 171 180 184 173 184 176 174 186 189 213 211 220 221 207 188 191 212 225 240 249 267 269 281 301 257 242 242